Hourly Weather Smorgon

Today, 9 May, Sunday

Time Temperature Precipitation Wind Pressure Humidity
00:00 +1°C° 0 mm 2 mps 748 mmHg 92%
01:00 +1°C° 0 mm 2 mps 749 mmHg 92%
02:00 -1°C° 0 mm 2 mps 749 mmHg 92%
03:00 -1°C° 0 mm 2 mps 750 mmHg 92%
04:00 -1°C° 0 mm 2 mps 750 mmHg 92%
05:00 -1°C° 0 mm 2 mps 750 mmHg 92%
06:00 +2°C° 0 mm 2 mps 751 mmHg 84%
07:00 +4°C° 0 mm 2 mps 751 mmHg 77%
08:00 +6°C° 0 mm 2 mps 752 mmHg 69%
09:00 +7°C° 0 mm 2 mps 752 mmHg 63%
10:00 +9°C° 0 mm 2 mps 752 mmHg 57%
11:00 +10°C° 0 mm 2 mps 752 mmHg 51%
12:00 +11°C° 0 mm 3 mps 752 mmHg 49%
13:00 +11°C° 0 mm 3 mps 752 mmHg 48%
14:00 +12°C° 0 mm 3 mps 752 mmHg 46%
15:00 +12°C° 0 mm 3 mps 752 mmHg 47%
16:00 +12°C° 0 mm 3 mps 752 mmHg 49%
17:00 +12°C° 0 mm 3 mps 752 mmHg 50%
18:00 +10°C° 0 mm 3 mps 752 mmHg 57%
19:00 +9°C° 0 mm 3 mps 752 mmHg 63%
20:00 +8°C° 0 mm 2 mps 752 mmHg 70%
21:00 +8°C° 0 mm 3 mps 752 mmHg 68%
22:00 +8°C° 0 mm 3 mps 752 mmHg 67%
23:00 +8°C° 0 mm 3 mps 752 mmHg 66%

Tomorrow, 10 May, Monday

Time Temperature Precipitation Wind Pressure Humidity
00:00 +7°C° 0 mm 4 mps 752 mmHg 66%
01:00 +7°C° 0 mm 4 mps 753 mmHg 66%
02:00 +7°C° 0 mm 4 mps 753 mmHg 67%
03:00 +7°C° 0 mm 4 mps 753 mmHg 68%
04:00 +6°C° 0 mm 4 mps 753 mmHg 70%
05:00 +6°C° 0 mm 4 mps 753 mmHg 72%
06:00 +7°C° 0 mm 4 mps 753 mmHg 69%
07:00 +9°C° 0 mm 5 mps 753 mmHg 67%
08:00 +10°C° 0 mm 5 mps 753 mmHg 64%
09:00 +13°C° 0 mm 5 mps 754 mmHg 61%
10:00 +14°C° 0 mm 5 mps 754 mmHg 58%
11:00 +16°C° 0 mm 6 mps 754 mmHg 55%
12:00 +17°C° 0 mm 6 mps 754 mmHg 54%
13:00 +17°C° 0 mm 6 mps 753 mmHg 53%
14:00 +19°C° 0 mm 6 mps 753 mmHg 52%
15:00 +19°C° 0 mm 5 mps 753 mmHg 55%
16:00 +17°C° 0 mm 5 mps 753 mmHg 58%
17:00 +17°C° 0 mm 5 mps 753 mmHg 61%
18:00 +15°C° 0 mm 4 mps 753 mmHg 67%
19:00 +14°C° 0 mm 4 mps 753 mmHg 72%
20:00 +12°C° 0 mm 3 mps 753 mmHg 78%
21:00 +11°C° 0 mm 4 mps 753 mmHg 77%
22:00 +11°C° 0 mm 4 mps 754 mmHg 76%
23:00 +10°C° 0 mm 4 mps 754 mmHg 75%

Day after tomorrow, 11 May, Tuesday

Time Temperature Precipitation Wind Pressure Humidity
00:00 +8°C° 0 mm 4 mps 754 mmHg 77%
01:00 +9°C° 0 mm 3 mps 754 mmHg 79%
02:00 +8°C° 0 mm 3 mps 754 mmHg 81%
03:00 +8°C° 0 mm 3 mps 754 mmHg 81%
04:00 +8°C° 0 mm 3 mps 754 mmHg 82%
05:00 +7°C° 0 mm 3 mps 754 mmHg 83%
06:00 +8°C° 0 mm 4 mps 754 mmHg 76%
07:00 +10°C° 0 mm 5 mps 754 mmHg 70%
08:00 +12°C° 0 mm 5 mps 754 mmHg 64%
09:00 +14°C° 0 mm 5 mps 754 mmHg 59%
10:00 +15°C° 0 mm 5 mps 754 mmHg 53%
11:00 +16°C° 0 mm 5 mps 754 mmHg 48%
12:00 +17°C° 0 mm 5 mps 754 mmHg 47%
13:00 +19°C° 0 mm 5 mps 753 mmHg 46%
14:00 +19°C° 0 mm 5 mps 753 mmHg 45%
15:00 +19°C° 0 mm 5 mps 753 mmHg 48%
16:00 +19°C° 0 mm 5 mps 752 mmHg 50%
17:00 +19°C° 0 mm 4 mps 752 mmHg 53%
18:00 +17°C° 0 mm 4 mps 752 mmHg 60%
19:00 +14°C° 0 mm 4 mps 752 mmHg 66%
20:00 +12°C° 0 mm 3 mps 752 mmHg 72%
21:00 +11°C° 0 mm 3 mps 752 mmHg 74%
22:00 +10°C° 0 mm 3 mps 752 mmHg 77%
23:00 +9°C° 0 mm 3 mps 752 mmHg 79%

12 May, Wednesday

Time Temperature Precipitation Wind Pressure Humidity
00:00 +9°C° 0 mm 3 mps 752 mmHg 83%
01:00 +9°C° 0 mm 3 mps 751 mmHg 87%
02:00 +9°C° 0 mm 2 mps 751 mmHg 90%
03:00 +9°C° 0 mm 2 mps 751 mmHg 92%
04:00 +9°C° 0 mm 2 mps 751 mmHg 94%
05:00 +9°C° 0 mm 2 mps 751 mmHg 96%
06:00 +11°C° 0 mm 3 mps 751 mmHg 89%
07:00 +13°C° 0 mm 3 mps 751 mmHg 83%
08:00 +16°C° 0 mm 3 mps 750 mmHg 76%
09:00 +17°C° 0 mm 4 mps 750 mmHg 72%
10:00 +17°C° 0 mm 5 mps 749 mmHg 68%
11:00 +20°C° 0 mm 5 mps 749 mmHg 64%
12:00 +19°C° 0.3 mm 6 mps 748 mmHg 66%
13:00 +19°C° 0.3 mm 6 mps 748 mmHg 68%
14:00 +19°C° 0.3 mm 6 mps 747 mmHg 69%
15:00 +16°C° 0.6 mm 6 mps 748 mmHg 76%
16:00 +13°C° 0.6 mm 5 mps 748 mmHg 83%
17:00 +10°C° 0.6 mm 4 mps 748 mmHg 90%
18:00 +10°C° 0 mm 4 mps 748 mmHg 91%
19:00 +10°C° 0 mm 3 mps 748 mmHg 91%
20:00 +9°C° 0 mm 3 mps 748 mmHg 92%
21:00 +9°C° 0 mm 3 mps 748 mmHg 92%
22:00 +9°C° 0 mm 3 mps 747 mmHg 93%
23:00 +8°C° 0 mm 4 mps 747 mmHg 93%

13 May, Thursday

Time Temperature Precipitation Wind Pressure Humidity
00:00 +7°C° 0 mm 4 mps 747 mmHg 94%
01:00 +7°C° 0 mm 4 mps 747 mmHg 95%
02:00 +7°C° 0 mm 4 mps 746 mmHg 95%
03:00 +8°C° 0 mm 3 mps 746 mmHg 96%
04:00 +7°C° 0 mm 3 mps 746 mmHg 96%
05:00 +7°C° 0 mm 3 mps 745 mmHg 97%
06:00 +8°C° 0.2 mm 3 mps 745 mmHg 96%
07:00 +8°C° 0.2 mm 3 mps 744 mmHg 95%
08:00 +8°C° 0.2 mm 4 mps 744 mmHg 94%
09:00 +8°C° 0.8 mm 4 mps 744 mmHg 92%
10:00 +9°C° 0.8 mm 3 mps 743 mmHg 91%
11:00 +9°C° 0.8 mm 3 mps 743 mmHg 89%
12:00 +11°C° 0.2 mm 4 mps 743 mmHg 81%
13:00 +12°C° 0.2 mm 5 mps 743 mmHg 73%
14:00 +13°C° 0.2 mm 6 mps 742 mmHg 65%
15:00 +11°C° 0.2 mm 6 mps 742 mmHg 70%
16:00 +10°C° 0.2 mm 6 mps 742 mmHg 75%
17:00 +9°C° 0.2 mm 6 mps 743 mmHg 80%
18:00 +9°C° 1.1 mm 6 mps 742 mmHg 85%
19:00 +8°C° 1.1 mm 5 mps 742 mmHg 90%
20:00 +7°C° 1.1 mm 4 mps 741 mmHg 95%
21:00 +8°C° 1.4 mm 4 mps 741 mmHg 96%
22:00 +10°C° 1.4 mm 4 mps 741 mmHg 96%
23:00 +10°C° 1.4 mm 4 mps 740 mmHg 96%

14 May, Friday

Time Temperature Precipitation Wind Pressure Humidity
00:00 +10°C° 0.4 mm 5 mps 740 mmHg 95%
01:00 +10°C° 0.4 mm 5 mps 739 mmHg 95%
02:00 +10°C° 0.4 mm 5 mps 739 mmHg 95%
03:00 +10°C° 0.2 mm 5 mps 739 mmHg 95%
04:00 +10°C° 0.2 mm 5 mps 739 mmHg 95%
05:00 +10°C° 0.2 mm 5 mps 739 mmHg 95%
06:00 +11°C° 0.6 mm 4 mps 739 mmHg 95%
07:00 +11°C° 0.6 mm 4 mps 739 mmHg 95%
08:00 +11°C° 0.6 mm 3 mps 739 mmHg 96%
09:00 +11°C° 0.2 mm 3 mps 739 mmHg 94%
10:00 +11°C° 0.2 mm 3 mps 740 mmHg 92%
11:00 +11°C° 0.2 mm 3 mps 740 mmHg 91%
12:00 +12°C° 0 mm 3 mps 740 mmHg 83%
13:00 +13°C° 0 mm 4 mps 741 mmHg 75%
14:00 +14°C° 0 mm 4 mps 741 mmHg 68%
15:00 +15°C° 0 mm 4 mps 741 mmHg 68%
16:00 +15°C° 0 mm 4 mps 741 mmHg 69%
17:00 +15°C° 0 mm 4 mps 741 mmHg 70%
18:00 +13°C° 0 mm 3 mps 742 mmHg 75%
19:00 +13°C° 0 mm 2 mps 742 mmHg 80%
20:00 +12°C° 0 mm 2 mps 742 mmHg 86%
21:00 +12°C° 0 mm 2 mps 742 mmHg 87%
22:00 +10°C° 0 mm 2 mps 742 mmHg 89%
23:00 +10°C° 0 mm 2 mps 742 mmHg 91%
Show more

We Need Your Consent

Meteoprog and our Service Providers may store and access personal data such as cookies, device identifiers or other similar technologies on your device and process such data to personalise content and ads, as well as provide social media features and to analyse the traffic.

  • Store and/or access information on your device

    Cookies, device identifiers or other information can be stored or accessed on your device for the purposes indicated above.

  • Personalised ads and content, ad and content measurement, audience insights, and products development

    Ads and content can be personalised based on a profile. More data can be added to better personalise ads and content. Ad and content performance can be measured. Insights about the audience who saw the ads and content can be derived. Such data can be used to develop or improve user’s experience, systems and software.

By clicking ‘I Agree’ you will allow the use of indicated cookies, device identifiers, web beacons or other similar technologies. Your settings can be changed in the browser on your device.

For certain purposes, legitimate interests may be relied on, rather than consent. You can read more about this in our Privacy and Cookie Policy.